User: anonymous   Login
Location: Unspecified
(0.0000°N, 0.0000°E)
Time: 20:25:47
(UTC+02:00)
Language:

Fermi - Orbit

View from above orbital plane
View from above orbital plane
View from above satellite
View from above satellite

Ground track
Ground track

The orbit data is extracted from the following two-line orbital elements,

1 33053U 08029A   21167.09157246  .00000458  00000-0  92573-5 0  9992
2 33053  25.5813 143.6820 0011935 256.5842 103.3362 15.11533886718415
Epoch (UTC): 16 June 2021 02:11:51
Eccentricity: 0.0011935
inclination: 25.5813°
perigee height: 523 km
apogee height: 540 km
right ascension of ascending node: 143.6820°
argument of perigee: 256.5842°
revolutions per day: 15.11533886
mean anomaly at epoch: 103.3362°
orbit number at epoch: 71841

The dashed part of the orbit path shows where the satellite is in the earth's shadow,  

DLR